[[{"header":{"parameterUnit":"m.s-1","parameterCategory":2,"la1":30.2991,"la2":30.254,"lo1":-89.0895,"lo2":-89.0444,"dy":0.0017,"dx":0.0017,"nx":28,"ny":28,"refTime":"2024-08-05T09:00:00:Z","depth":"0","parameterNumber":2,"parameterNumberName":"U-component_of_CURRENTS"},"data":[0,0,0,0,0,0,0,0,0,0,0,0,0,0,0,0,0,0,0,0,0,0,0,0,0,0,0,0,0,0,0,0,0,0,0,0,0,0,0,0,0,0,0,0,0,0,0,0,0,0,0,0,0,0,0,0,0,0,-0.2154,-0.2154,0,-0.2175,-0.2175,-0.2175,-0.2224,-0.2225,-0.2226,-0.2227,-0.2266,-0.2266,-0.2266,0,0,0,0,0,0,0,0,0,0,0,0,0,-0.2156,-0.2155,-0.2154,-0.2154,-0.2154,-0.2175,-0.2175,-0.2175,-0.2224,-0.2225,-0.2227,-0.2228,-0.2266,-0.2266,-0.2266,0,0,0,0,0,0,0,0,0,0,0,0,0,-0.2163,-0.2155,-0.2154,-0.2182,-0.2185,-0.2175,-0.2175,-0.2175,-0.2224,-0.2225,-0.2227,-0.2229,-0.2266,-0.2266,-0.2266,-0.2233,0,0,-0.2266,-0.2266,0,0,0,0,0,0,0,0,-0.2162,-0.2162,-0.2177,-0.218,-0.2183,-0.2199,-0.219,-0.2196,-0.2223,-0.2208,-0.2227,-0.2229,-0.2245,-0.2246,-0.2245,-0.2235,-0.2237,-0.2266,-0.2266,-0.2266,-0.2266,0,0,0,0,0,0,0,-0.2162,-0.2162,-0.2161,-0.2178,-0.2181,-0.2194,-0.2196,-0.2191,-0.2216,-0.2209,-0.2213,-0.2216,-0.2246,-0.2245,-0.2247,-0.2237,-0.2266,-0.2266,-0.2266,-0.2266,-0.2254,-0.2253,0,0,0,0,0,0,-0.2159,-0.2161,-0.216,-0.2162,-0.2177,-0.2192,-0.2195,-0.2192,-0.2216,-0.2222,-0.2215,-0.2219,-0.2244,-0.2247,-0.2248,-0.2263,-0.2266,-0.2266,-0.2266,-0.2254,-0.2254,-0.2253,0,0,0,0,0,0,-0.2159,-0.2158,-0.216,-0.2163,-0.2165,-0.2191,-0.2186,-0.2191,-0.2199,-0.222,-0.2227,-0.2219,-0.2246,-0.2248,-0.2257,-0.2263,-0.2266,-0.2266,-0.2254,-0.2254,-0.2253,-0.2259,0,0,0,0,0,0,-0.2158,-0.2158,-0.2152,-0.2163,-0.2164,-0.216,-0.2185,-0.2191,-0.2198,-0.2203,-0.2225,-0.223,-0.2247,-0.2257,-0.2257,-0.2263,-0.2266,-0.2255,-0.2254,-0.2253,-0.2259,-0.2258,-0.2258,0,0,0,0,0,-0.2158,-0.2149,-0.2151,-0.2151,-0.2156,-0.216,-0.2161,-0.2185,-0.2197,-0.2198,-0.2218,-0.223,-0.2254,-0.2257,-0.2257,-0.2263,-0.2255,-0.2254,-0.2254,-0.2259,-0.2258,-0.2258,0,0,0,0,0,0,-0.214,-0.2153,-0.2156,-0.2149,-0.2155,-0.2169,-0.217,-0.218,-0.2193,-0.22,-0.2222,-0.2228,-0.2242,-0.2242,-0.2245,-0.2256,-0.2257,-0.2256,-0.2261,-0.226,-0.226,-0.2287,-0.2266,0,0,0,0,0,-0.2131,-0.2132,-0.2142,-0.2133,-0.2137,-0.2149,-0.2153,-0.2166,-0.218,-0.2188,-0.22,-0.2215,-0.2234,-0.224,-0.2251,-0.2247,-0.2258,-0.225,-0.225,-0.2249,-0.2271,-0.2291,-0.2295,-0.2251,-0.2251,-0.2251,0,0,-0.2117,-0.2127,-0.2124,-0.213,-0.2136,-0.2145,-0.2156,-0.216,-0.2172,-0.2187,-0.2201,-0.2213,-0.2233,-0.2244,-0.2249,-0.2247,-0.2261,-0.2248,-0.2248,-0.2271,-0.2291,-0.2295,-0.2299,-0.225,-0.225,-0.225,0,0,-0.2101,-0.2101,-0.2102,-0.2111,-0.2123,-0.2134,-0.2135,-0.2145,-0.2158,-0.2162,-0.2189,-0.2211,-0.221,-0.2246,-0.2261,-0.2259,-0.226,-0.2245,-0.2263,-0.2282,-0.2286,-0.229,-0.2284,-0.2287,-0.2241,-0.2241,-0.2241,0,-0.2086,-0.2087,-0.21,-0.211,-0.2122,-0.2131,-0.214,-0.2149,-0.216,-0.2179,-0.2169,-0.2211,-0.2224,-0.2272,-0.2275,-0.2263,-0.2257,-0.2266,-0.2283,-0.2288,-0.2292,-0.2285,-0.2289,-0.2241,-0.2241,-0.2241,-0.2241,0,-0.2074,-0.208,-0.2081,-0.2102,-0.2117,-0.2119,-0.2143,-0.2153,-0.2162,-0.218,-0.2214,-0.2229,-0.2265,-0.2261,-0.2269,-0.2306,-0.2285,-0.2284,-0.2289,-0.2297,-0.2288,-0.2292,-0.2241,-0.2241,-0.2241,-0.2241,0,0,-0.2021,-0.2066,-0.2065,-0.2085,-0.2115,-0.2126,-0.2154,-0.2188,-0.2221,-0.2221,-0.2262,-0.2291,-0.2303,-0.2321,-0.2329,-0.2341,-0.2355,-0.2319,-0.232,-0.2321,-0.237,-0.2285,-0.2281,-0.2347,-0.2349,-0.235,-0.2342,0,-0.2005,-0.2028,-0.206,-0.2084,-0.2096,-0.2136,-0.2172,-0.221,-0.2233,-0.2269,-0.2299,-0.2333,-0.2324,-0.2338,-0.2353,-0.2365,-0.237,-0.2356,-0.2356,-0.2356,-0.2288,-0.2286,-0.2189,-0.2169,-0.2346,-0.2347,-0.2347,0,-0.1982,-0.2,-0.2027,-0.2093,-0.2106,-0.2127,-0.2197,-0.2227,-0.2293,-0.2317,-0.2357,-0.2377,-0.2419,-0.2394,-0.2425,-0.2409,-0.2394,-0.239,-0.2389,-0.232,-0.2281,-0.2194,-0.217,-0.2162,-0.2354,-0.2353,-0.2353,0,-0.1942,-0.1982,-0.2008,-0.2024,-0.2095,-0.2124,-0.216,-0.2234,-0.2284,-0.234,-0.2379,-0.2423,-0.2448,-0.2448,-0.2438,-0.243,-0.2449,-0.244,-0.235,-0.2343,-0.227,-0.2254,-0.2251,-0.2458,-0.2458,-0.2458,-0.2458,0,-0.1923,-0.1941,-0.1987,-0.1999,-0.2036,-0.2097,-0.2158,-0.2203,-0.2289,-0.236,-0.2394,-0.2449,-0.2462,-0.2475,-0.2452,-0.2408,-0.2461,-0.2361,-0.2342,-0.2263,-0.2247,-0.2244,-0.228,-0.2457,-0.2457,-0.2458,-0.2458,0,-0.1891,-0.1926,-0.1946,-0.2,-0.202,-0.2041,-0.2146,-0.2211,-0.2278,-0.2366,-0.2388,-0.2472,-0.2477,-0.2467,-0.2465,-0.2422,-0.2345,-0.2358,-0.2248,-0.2216,-0.2107,-0.2147,-0.2111,-0.2048,-0.2259,-0.2257,-0.2255,0,-0.1889,-0.1888,-0.1922,-0.195,-0.1975,-0.2024,-0.2093,-0.2183,-0.226,-0.2383,-0.2434,-0.2465,-0.2474,-0.2424,-0.2346,-0.2266,-0.2271,-0.2143,-0.2119,-0.2091,-0.2124,-0.2117,-0.2066,-0.2017,-0.2013,-0.201,-0.2008,0,-0.1859,-0.1861,-0.1883,-0.1919,-0.1974,-0.2041,-0.2126,-0.2174,-0.2302,-0.2352,-0.2413,-0.2415,-0.2379,-0.2255,-0.2156,-0.2104,-0.2084,-0.2079,-0.2094,-0.1972,-0.1925,-0.1857,-0.2024,-0.1982,-0.1985,-0.1987,-0.1988,-0.1989,-0.1832,-0.1831,-0.1855,-0.1893,-0.1963,-0.2032,-0.2032,-0.2134,-0.2189,-0.2219,-0.2306,-0.2257,-0.2182,-0.2016,-0.1961,-0.1835,-0.1892,-0.179,-0.1851,-0.1852,-0.1764,-0.1857,-0.1767,-0.1768,-0.1769,-0.177,-0.1771,0,-0.1803,-0.1814,-0.1842,-0.1879,-0.1928,-0.1974,-0.2052,-0.2016,-0.2004,-0.2064,-0.2039,-0.1986,-0.1856,-0.1806,-0.169,-0.1633,-0.1578,-0.1621,-0.1616,-0.1582,-0.1695,-0.1656,-0.1485,-0.1485,-0.1485,-0.1485,-0.1485,-0.1485,-0.1794,-0.18,-0.1808,-0.1831,-0.1857,-0.1846,-0.1843,-0.1766,-0.1754,-0.1679,-0.1672,-0.1717,-0.17,-0.1793,-0.1674,-0.158,-0.1551,-0.1502,-0.1535,-0.1661,-0.1682,-0.1702,-0.1672,-0.1506,-0.1507,-0.1325,-0.1324,-0.1323]},{"header":{"parameterUnit":"m.s-1","parameterCategory":2,"la1":30.2991,"la2":30.254,"lo1":-89.0895,"lo2":-89.0444,"dy":0.0017,"dx":0.0017,"nx":28,"ny":28,"refTime":"2024-08-05T09:00:00:Z","depth":"0","parameterNumber":3,"parameterNumberName":"V-component_of_CURRENTS"},"data":[0,0,0,0,0,0,0,0,0,0,0,0,0,0,0,0,0,0,0,0,0,0,0,0,0,0,0,0,0,0,0,0,0,0,0,0,0,0,0,0,0,0,0,0,0,0,0,0,0,0,0,0,0,0,0,0,0,0,-0.0537,-0.0536,0,-0.0472,-0.0471,-0.0471,-0.0442,-0.0442,-0.0442,-0.0441,-0.0433,-0.0433,-0.0433,0,0,0,0,0,0,0,0,0,0,0,0,0,-0.076,-0.0756,-0.0538,-0.0536,-0.0535,-0.0472,-0.0471,-0.0471,-0.0443,-0.0442,-0.0442,-0.0441,-0.0433,-0.0433,-0.0433,0,0,0,0,0,0,0,0,0,0,0,0,0,-0.068,-0.0754,-0.0538,-0.051,-0.0506,-0.0472,-0.0471,-0.0471,-0.0443,-0.0442,-0.0442,-0.0441,-0.0433,-0.0433,-0.0433,-0.0444,0,0,-0.0433,-0.0433,0,0,0,0,0,0,0,0,-0.0685,-0.0673,-0.0515,-0.0511,-0.0507,-0.046,-0.0546,-0.0463,-0.0443,-0.0472,-0.0441,-0.0441,-0.0444,-0.0444,-0.0438,-0.0443,-0.0443,-0.0433,-0.0433,-0.0433,-0.0433,0,0,0,0,0,0,0,-0.069,-0.0676,-0.0516,-0.0514,-0.0509,-0.0541,-0.0529,-0.0531,-0.0467,-0.0469,-0.0466,-0.0451,-0.0443,-0.0438,-0.0438,-0.0443,-0.0433,-0.0433,-0.0433,-0.0434,-0.0446,-0.0446,0,0,0,0,0,0,-0.0681,-0.068,-0.0518,-0.0514,-0.0591,-0.0537,-0.0523,-0.048,-0.0465,-0.0461,-0.0451,-0.045,-0.0438,-0.0438,-0.0438,-0.0454,-0.0433,-0.0434,-0.0434,-0.0445,-0.0446,-0.0446,0,0,0,0,0,0,-0.0686,-0.0667,-0.0521,-0.0594,-0.0577,-0.0532,-0.0485,-0.0479,-0.0469,-0.045,-0.0448,-0.0446,-0.0438,-0.0438,-0.0442,-0.0454,-0.0434,-0.0434,-0.0445,-0.0446,-0.0446,-0.0485,0,0,0,0,0,0,-0.0692,-0.0668,-0.0651,-0.0592,-0.0572,-0.0508,-0.0485,-0.0478,-0.0458,-0.0456,-0.0445,-0.0444,-0.0438,-0.0442,-0.0442,-0.0454,-0.0434,-0.0445,-0.0445,-0.0446,-0.0484,-0.0487,-0.049,0,0,0,0,0,-0.07,-0.0672,-0.065,-0.0631,-0.0543,-0.0508,-0.0503,-0.0474,-0.0459,-0.0463,-0.0452,-0.0444,-0.0445,-0.0442,-0.0443,-0.0454,-0.0445,-0.0445,-0.0446,-0.0482,-0.0486,-0.049,0,0,0,0,0,0,-0.0759,-0.0664,-0.0639,-0.0582,-0.0552,-0.0501,-0.0495,-0.0475,-0.0469,-0.0466,-0.0451,-0.045,-0.0457,-0.0449,-0.0447,-0.0457,-0.0442,-0.0443,-0.047,-0.0473,-0.0476,-0.0483,-0.0434,0,0,0,0,0,-0.0762,-0.0713,-0.0645,-0.0604,-0.0584,-0.0542,-0.0527,-0.0506,-0.0483,-0.0478,-0.0473,-0.0464,-0.046,-0.0461,-0.0459,-0.0469,-0.0436,-0.0475,-0.0478,-0.048,-0.0485,-0.044,-0.044,-0.0448,-0.0448,-0.0448,0,0,-0.0771,-0.0715,-0.0686,-0.0615,-0.0583,-0.0574,-0.0532,-0.0506,-0.0513,-0.048,-0.0496,-0.0477,-0.0465,-0.0474,-0.0476,-0.0469,-0.0459,-0.0481,-0.0484,-0.0487,-0.0441,-0.044,-0.0439,-0.0448,-0.0448,-0.0448,0,0,-0.0775,-0.0715,-0.0683,-0.0662,-0.0613,-0.0596,-0.0589,-0.0546,-0.0541,-0.0547,-0.0522,-0.0508,-0.0514,-0.05,-0.0494,-0.0512,-0.0476,-0.0512,-0.0537,-0.0494,-0.0492,-0.0491,-0.044,-0.0433,-0.0515,-0.0515,-0.0515,0,-0.0795,-0.0739,-0.0678,-0.0659,-0.0651,-0.0609,-0.0607,-0.06,-0.0574,-0.0574,-0.0561,-0.0538,-0.0526,-0.0521,-0.0527,-0.052,-0.0485,-0.0526,-0.0497,-0.0495,-0.0493,-0.0441,-0.0433,-0.0517,-0.0517,-0.0517,-0.0516,0,-0.0781,-0.0752,-0.0736,-0.0697,-0.0691,-0.0679,-0.0658,-0.0663,-0.0652,-0.0639,-0.0628,-0.0597,-0.0579,-0.0572,-0.0559,-0.054,-0.0515,-0.0505,-0.0488,-0.0494,-0.0439,-0.043,-0.052,-0.0519,-0.0519,-0.0518,0,0,-0.0801,-0.0735,-0.0737,-0.0738,-0.0711,-0.0708,-0.0723,-0.0721,-0.0728,-0.0706,-0.0699,-0.068,-0.0642,-0.0631,-0.0597,-0.0561,-0.0513,-0.0532,-0.0529,-0.0482,-0.0407,-0.0328,-0.0311,-0.0495,-0.0494,-0.0493,-0.0371,0,-0.0819,-0.0792,-0.0762,-0.0785,-0.078,-0.0765,-0.0786,-0.0786,-0.0777,-0.0768,-0.0717,-0.07,-0.0671,-0.0649,-0.061,-0.0536,-0.0494,-0.0547,-0.0407,-0.0403,-0.0333,-0.03,-0.0278,-0.0161,-0.0362,-0.0361,-0.036,0,-0.0841,-0.0818,-0.0819,-0.0825,-0.0822,-0.0843,-0.0868,-0.0875,-0.0853,-0.0834,-0.0795,-0.0751,-0.0692,-0.0662,-0.0539,-0.0572,-0.0498,-0.0438,-0.0431,-0.034,-0.0308,-0.0189,-0.0138,-0.002,-0.0346,-0.0347,-0.0348,0,-0.0905,-0.0883,-0.0887,-0.0886,-0.0875,-0.0894,-0.0903,-0.0901,-0.0906,-0.0866,-0.0846,-0.0774,-0.0714,-0.0626,-0.0496,-0.0518,-0.0343,-0.0357,-0.0215,-0.0209,-0.0153,-0.0143,0.0027,-0.0271,-0.0271,-0.0272,-0.0272,0,-0.0955,-0.0968,-0.0917,-0.0924,-0.0962,-0.094,-0.098,-0.0973,-0.0947,-0.0937,-0.0875,-0.0824,-0.07,-0.0586,-0.0491,-0.0305,-0.0332,-0.0205,-0.0167,-0.0165,-0.0157,-0.0023,0.0057,-0.0267,-0.0268,-0.0269,-0.027,0,-0.1034,-0.0993,-0.1002,-0.0982,-0.099,-0.1019,-0.1032,-0.1054,-0.101,-0.0985,-0.0967,-0.0847,-0.0678,-0.054,-0.0363,-0.0275,-0.0023,-0.0059,-0.0054,-0.0017,0.0207,0.0284,0.0558,0.0609,0.0105,0.0108,0.011,0,-0.1069,-0.1069,-0.1049,-0.107,-0.1068,-0.1099,-0.1127,-0.1098,-0.1098,-0.0989,-0.0969,-0.0799,-0.0663,-0.0361,-0.0168,0.0039,0.0128,0.0174,0.013,0.0246,0.0359,0.0422,0.0447,0.0189,0.0192,0.0194,0.0196,0,-0.1133,-0.1112,-0.1109,-0.1142,-0.1175,-0.1204,-0.122,-0.122,-0.1158,-0.1093,-0.0951,-0.0827,-0.0513,-0.0247,0.0034,0.0151,0.0297,0.0228,0.0343,0.045,0.0535,0.0592,0.0085,0.0216,0.0214,0.0213,0.0212,0.0211,-0.1178,-0.1187,-0.1174,-0.122,-0.1258,-0.1286,-0.1294,-0.1266,-0.1218,-0.1085,-0.0953,-0.0737,-0.035,0.0063,0.0213,0.052,0.0505,0.0574,0.0662,0.0716,0.0768,0.0321,0.0497,0.0497,0.0496,0.0496,0.0496,0,-0.1218,-0.1221,-0.1262,-0.1291,-0.1344,-0.1344,-0.1342,-0.1306,-0.1216,-0.1067,-0.09,-0.0474,-0.0087,0.0262,0.0716,0.0902,0.0922,0.1001,0.1065,0.1065,0.066,0.0661,0.0887,0.0887,0.0887,0.0887,0.0886,0.0886,-0.1235,-0.1261,-0.1275,-0.1357,-0.1387,-0.1412,-0.1397,-0.1294,-0.1173,-0.0897,-0.0656,-0.0472,0.0066,0.0879,0.1284,0.1304,0.1439,0.1497,0.1552,0.1238,0.1202,0.1168,0.1185,0.1517,0.1518,0.1885,0.1889,0.1892]}],[{"header":{"parameterUnit":"m.s-1","parameterCategory":2,"la1":30.2991,"la2":30.254,"lo1":-89.0895,"lo2":-89.0444,"dy":0.0017,"dx":0.0017,"nx":28,"ny":28,"refTime":"2024-08-05T09:00:00:Z","depth":"2","parameterNumber":2,"parameterNumberName":"U-component_of_CURRENTS"},"data":[0,0,0,0,0,0,0,0,0,0,0,0,0,0,0,0,0,0,0,0,0,0,0,0,0,0,0,0,0,0,0,0,0,0,0,0,0,0,0,0,0,0,0,0,0,0,0,0,0,0,0,0,0,0,0,0,0,0,-0.1826,-0.1826,0,-0.1831,-0.1831,-0.1831,-0.1825,-0.1825,-0.1825,-0.1824,-0.1839,-0.1839,-0.184,0,0,0,0,0,0,0,0,0,0,0,0,0,-0.1877,-0.1875,-0.1826,-0.1826,-0.1827,-0.1831,-0.1831,-0.1831,-0.1825,-0.1825,-0.1825,-0.1824,-0.1838,-0.1839,-0.184,0,0,0,0,0,0,0,0,0,0,0,0,0,-0.1865,-0.1875,-0.1826,-0.1824,-0.1824,-0.1831,-0.1831,-0.1831,-0.1825,-0.1825,-0.1825,-0.1824,-0.1838,-0.1839,-0.184,-0.1852,0,0,-0.1843,-0.1843,0,0,0,0,0,0,0,0,-0.1866,-0.1863,-0.1824,-0.1824,-0.1824,-0.1827,-0.1854,-0.1838,-0.1825,-0.1825,-0.1824,-0.1824,-0.1836,-0.1837,-0.1838,-0.1853,-0.1853,-0.1843,-0.1843,-0.1844,-0.1844,0,0,0,0,0,0,0,-0.1867,-0.1864,-0.1828,-0.1824,-0.1824,-0.1845,-0.1842,-0.1851,-0.1832,-0.1825,-0.1824,-0.1825,-0.1836,-0.1838,-0.1839,-0.1853,-0.1843,-0.1843,-0.1844,-0.1844,-0.1957,-0.1959,0,0,0,0,0,0,-0.1863,-0.1864,-0.1828,-0.1828,-0.1844,-0.1844,-0.1841,-0.1826,-0.1832,-0.1832,-0.1825,-0.1825,-0.1836,-0.1838,-0.1839,-0.1899,-0.1844,-0.1844,-0.1845,-0.1954,-0.1957,-0.196,0,0,0,0,0,0,-0.1863,-0.1859,-0.1828,-0.1847,-0.1845,-0.1843,-0.1827,-0.1827,-0.1837,-0.1832,-0.1833,-0.1836,-0.1836,-0.1838,-0.1871,-0.1898,-0.1845,-0.1846,-0.1951,-0.1955,-0.1958,-0.199,0,0,0,0,0,0,-0.1864,-0.1859,-0.1851,-0.1846,-0.1843,-0.1829,-0.1827,-0.1827,-0.1837,-0.1837,-0.1842,-0.1842,-0.1836,-0.187,-0.1872,-0.1898,-0.1846,-0.1948,-0.1953,-0.1957,-0.1986,-0.1995,-0.2002,0,0,0,0,0,-0.1866,-0.1847,-0.185,-0.1846,-0.183,-0.1829,-0.1829,-0.1828,-0.1838,-0.1838,-0.1862,-0.1843,-0.1901,-0.1872,-0.1874,-0.1901,-0.1946,-0.1952,-0.1957,-0.1983,-0.1993,-0.2002,0,0,0,0,0,0,-0.1852,-0.1845,-0.1847,-0.1824,-0.1828,-0.1827,-0.1826,-0.1837,-0.1855,-0.1863,-0.1866,-0.1868,-0.191,-0.191,-0.1878,-0.1953,-0.1924,-0.193,-0.1943,-0.1953,-0.196,-0.1973,-0.1847,0,0,0,0,0,-0.1849,-0.184,-0.1838,-0.1822,-0.1823,-0.1833,-0.1835,-0.184,-0.1854,-0.1861,-0.1878,-0.1904,-0.1934,-0.1945,-0.1966,-0.1999,-0.1995,-0.2024,-0.2032,-0.2038,-0.2054,-0.2075,-0.2085,-0.1978,-0.1978,-0.1978,0,0,-0.1839,-0.1836,-0.1829,-0.1821,-0.1824,-0.1849,-0.1833,-0.1838,-0.1875,-0.1862,-0.1918,-0.193,-0.1952,-0.1994,-0.2013,-0.1994,-0.2066,-0.2045,-0.205,-0.2063,-0.2081,-0.2091,-0.21,-0.1982,-0.1981,-0.198,0,0,-0.1831,-0.1813,-0.1815,-0.1831,-0.1843,-0.1853,-0.1861,-0.1878,-0.1895,-0.1942,-0.1957,-0.1996,-0.2028,-0.2059,-0.2076,-0.2146,-0.2109,-0.2146,-0.2189,-0.2208,-0.2216,-0.2223,-0.2218,-0.2224,-0.2147,-0.2147,-0.2147,0,-0.1828,-0.1826,-0.1815,-0.184,-0.1864,-0.1865,-0.1897,-0.1918,-0.1953,-0.198,-0.1966,-0.2057,-0.2068,-0.2139,-0.2162,-0.2163,-0.2151,-0.2142,-0.2215,-0.2222,-0.2229,-0.2222,-0.2228,-0.2149,-0.2149,-0.2148,-0.2148,0,-0.184,-0.1849,-0.1852,-0.1892,-0.1915,-0.1933,-0.197,-0.2001,-0.2026,-0.2054,-0.212,-0.2141,-0.2192,-0.2204,-0.2201,-0.2266,-0.2232,-0.2219,-0.2181,-0.2241,-0.223,-0.2236,-0.2152,-0.2151,-0.2151,-0.215,0,0,-0.1819,-0.1853,-0.1861,-0.1898,-0.1948,-0.1972,-0.2033,-0.2086,-0.2141,-0.2169,-0.2232,-0.2289,-0.2289,-0.2313,-0.2314,-0.2332,-0.2362,-0.2291,-0.2291,-0.2268,-0.2377,-0.225,-0.2244,-0.2343,-0.2345,-0.2347,-0.2344,0,-0.1839,-0.1889,-0.1907,-0.1982,-0.2017,-0.2054,-0.2123,-0.218,-0.2212,-0.2271,-0.2296,-0.235,-0.2333,-0.2349,-0.2371,-0.2367,-0.2382,-0.2363,-0.234,-0.2339,-0.2204,-0.2249,-0.2093,-0.2068,-0.235,-0.2351,-0.2351,0,-0.1856,-0.1895,-0.1953,-0.2045,-0.2066,-0.211,-0.2212,-0.2271,-0.2345,-0.2372,-0.2414,-0.2424,-0.2471,-0.2435,-0.2465,-0.2442,-0.2422,-0.2409,-0.2408,-0.2286,-0.2224,-0.2059,-0.2068,-0.2361,-0.2361,-0.236,-0.2359,0,-0.1856,-0.1933,-0.1979,-0.2012,-0.2111,-0.2148,-0.2202,-0.2292,-0.2351,-0.2416,-0.245,-0.2501,-0.2518,-0.2515,-0.2481,-0.2472,-0.2483,-0.247,-0.2344,-0.2333,-0.2197,-0.2171,-0.2498,-0.2499,-0.2499,-0.2499,-0.2499,0,-0.1867,-0.1912,-0.1977,-0.2008,-0.2091,-0.2161,-0.2252,-0.2304,-0.2391,-0.246,-0.2489,-0.2513,-0.2535,-0.2532,-0.2502,-0.2426,-0.2501,-0.236,-0.2331,-0.2202,-0.2178,-0.2434,-0.2427,-0.2498,-0.2498,-0.2498,-0.2498,0,-0.1844,-0.1884,-0.1949,-0.2047,-0.2079,-0.2135,-0.2255,-0.2333,-0.2401,-0.2479,-0.2495,-0.253,-0.2495,-0.2495,-0.248,-0.2437,-0.239,-0.2346,-0.2175,-0.2125,-0.2225,-0.222,-0.2217,-0.2213,-0.2209,-0.2206,-0.2204,0,-0.1829,-0.1854,-0.1954,-0.2002,-0.2033,-0.2131,-0.2211,-0.2313,-0.2385,-0.2468,-0.2492,-0.2479,-0.2421,-0.2338,-0.2265,-0.2186,-0.227,-0.2014,-0.1981,-0.2228,-0.22,-0.22,-0.22,-0.1816,-0.1811,-0.1806,-0.1802,0,-0.181,-0.1836,-0.1893,-0.197,-0.2042,-0.2136,-0.2231,-0.2273,-0.2396,-0.2394,-0.2348,-0.2285,-0.2231,-0.2039,-0.1967,-0.1906,-0.2012,-0.1915,-0.2236,-0.1898,-0.1845,-0.1819,-0.1833,-0.1762,-0.1766,-0.1769,-0.1771,-0.1773,-0.1789,-0.1817,-0.1875,-0.1945,-0.2028,-0.2077,-0.2051,-0.215,-0.2141,-0.2102,-0.2152,-0.2003,-0.1991,-0.1743,-0.1638,-0.1576,-0.1713,-0.1661,-0.1678,-0.1699,-0.1639,-0.1581,-0.1437,-0.1439,-0.1441,-0.1442,-0.1444,0,-0.1761,-0.1796,-0.1856,-0.1897,-0.1898,-0.1972,-0.2025,-0.1958,-0.1837,-0.1886,-0.1782,-0.1575,-0.1437,-0.1431,-0.1271,-0.1229,-0.1246,-0.1176,-0.1214,-0.1254,-0.129,-0.1212,-0.0895,-0.0893,-0.0892,-0.089,0,0,-0.1747,-0.1776,-0.1796,-0.1745,-0.1743,-0.1669,-0.1621,-0.1537,-0.152,-0.1377,-0.1311,-0.1404,-0.1419,-0.1177,-0.1099,-0.0975,-0.1108,-0.0923,-0.1366,-0.1453,-0.1487,-0.1571,-0.1495,0,0,0,0,0]},{"header":{"parameterUnit":"m.s-1","parameterCategory":2,"la1":30.2991,"la2":30.254,"lo1":-89.0895,"lo2":-89.0444,"dy":0.0017,"dx":0.0017,"nx":28,"ny":28,"refTime":"2024-08-05T09:00:00:Z","depth":"2","parameterNumber":3,"parameterNumberName":"V-component_of_CURRENTS"},"data":[0,0,0,0,0,0,0,0,0,0,0,0,0,0,0,0,0,0,0,0,0,0,0,0,0,0,0,0,0,0,0,0,0,0,0,0,0,0,0,0,0,0,0,0,0,0,0,0,0,0,0,0,0,0,0,0,0,0,0.0133,0.0134,0,0.0166,0.0166,0.0166,0.0151,0.0151,0.0151,0.015,0.0193,0.0194,0.0195,0,0,0,0,0,0,0,0,0,0,0,0,0,0.0076,0.0076,0.0133,0.0134,0.0135,0.0166,0.0166,0.0166,0.0151,0.0151,0.0151,0.015,0.0192,0.0194,0.0195,0,0,0,0,0,0,0,0,0,0,0,0,0,0.0097,0.0077,0.0133,0.0137,0.0138,0.0166,0.0166,0.0166,0.0151,0.0151,0.0151,0.015,0.0192,0.0194,0.0196,0.0212,0,0,0.0202,0.0202,0,0,0,0,0,0,0,0,0.0096,0.0098,0.0135,0.0137,0.0138,0.016,0.0162,0.0184,0.0151,0.0139,0.015,0.015,0.0188,0.019,0.0186,0.0214,0.0216,0.0202,0.0203,0.0204,0.0204,0,0,0,0,0,0,0,0.0095,0.0097,0.0139,0.0136,0.0138,0.0144,0.0146,0.0165,0.0159,0.014,0.014,0.0156,0.0188,0.0185,0.0188,0.0217,0.0202,0.0203,0.0205,0.0205,0.0207,0.0206,0,0,0,0,0,0,0.0104,0.0096,0.0138,0.0141,0.0124,0.0146,0.0147,0.0148,0.0158,0.0162,0.0156,0.0155,0.0181,0.0185,0.0189,0.0158,0.0204,0.0206,0.0207,0.0208,0.0207,0.0205,0,0,0,0,0,0,0.0103,0.0107,0.0137,0.0125,0.0131,0.0147,0.0148,0.0149,0.0139,0.0172,0.0174,0.0145,0.0181,0.0186,0.0187,0.0162,0.0206,0.0208,0.0209,0.0208,0.0206,0.0131,0,0,0,0,0,0,0.01,0.0106,0.0092,0.0126,0.0132,0.0152,0.0149,0.015,0.0152,0.0151,0.0164,0.0168,0.0182,0.0184,0.0189,0.0166,0.021,0.0211,0.0209,0.0207,0.0135,0.0127,0.012,0,0,0,0,0,0.0098,0.0098,0.0091,0.0096,0.0118,0.0153,0.0155,0.0162,0.0152,0.015,0.0145,0.0167,0.0174,0.0185,0.0191,0.0167,0.0212,0.0209,0.0207,0.0138,0.0128,0.012,0,0,0,0,0,0,0.007,0.0098,0.0091,0.0098,0.012,0.0153,0.0149,0.0157,0.015,0.0141,0.0158,0.0162,0.0154,0.0172,0.0184,0.0161,0.0195,0.0193,0.014,0.0131,0.0124,0.0105,0.0211,0,0,0,0,0,0.0057,0.0057,0.009,0.0093,0.0098,0.0116,0.0125,0.0137,0.0148,0.0144,0.0149,0.015,0.015,0.015,0.0161,0.0152,0.0183,0.0139,0.0132,0.0125,0.0113,0.0143,0.0138,0.0197,0.0197,0.0197,0,0,0.0042,0.0064,0.0057,0.0086,0.0093,0.0101,0.0118,0.0135,0.0126,0.0152,0.0123,0.0133,0.0145,0.0128,0.0126,0.0138,0.0125,0.0122,0.0117,0.0108,0.014,0.0135,0.013,0.0196,0.0196,0.0196,0,0,0.0037,0.0031,0.0031,0.0047,0.0075,0.0086,0.009,0.0112,0.0098,0.009,0.0094,0.0085,0.009,0.0085,0.0084,0.0046,0.0091,0.0048,-0.0012,0.0017,0.0013,0.0009,0.0045,0.0045,0.0036,0.0036,0.0036,0,0.001,0.0019,0.0038,0.0051,0.005,0.0076,0.0071,0.0069,0.0086,0.0058,0.0072,0.005,0.0066,0.0033,0.0009,0.0029,0.0055,0.002,0.0008,0.0005,0.0003,0.004,0.0041,0.0032,0.0033,0.0033,0.0034,0,0.0016,0.001,0.0014,0.0021,0.0026,0.003,0.0038,0.002,0.0004,-0.0001,-0.0037,-0.0019,-0.0039,-0.0035,-0.003,-0.0053,-0.0024,0.0003,0.0031,-0.0008,0.0034,0.0037,0.0027,0.0028,0.0029,0.003,0,0,-0.0029,0.0002,-0.0003,-0.0021,0.0003,0.0001,-0.0025,-0.0054,-0.0102,-0.009,-0.0142,-0.0148,-0.0147,-0.0147,-0.0131,-0.0115,-0.0108,-0.0079,-0.0075,-0.0044,-0.0041,0.0013,0.0022,-0.0083,-0.0083,-0.0083,-0.0003,0,-0.0048,-0.0046,-0.0023,-0.0055,-0.0067,-0.0068,-0.0107,-0.0129,-0.0153,-0.0193,-0.0185,-0.0216,-0.0186,-0.0204,-0.0184,-0.0123,-0.0106,-0.0132,-0.0009,-0.0005,0.0048,0.0025,-0.0002,0.007,-0.0,0.0,0.0001,0,-0.0057,-0.0062,-0.0086,-0.0127,-0.014,-0.0155,-0.0239,-0.0264,-0.0304,-0.0324,-0.0339,-0.0325,-0.0317,-0.0274,-0.0192,-0.021,-0.0145,-0.0087,-0.0082,-0.0006,0.0053,0.0096,0.0078,0.0006,0.0005,0.0005,0.0005,0,-0.0102,-0.0117,-0.015,-0.0155,-0.0185,-0.0227,-0.0264,-0.0316,-0.0371,-0.0402,-0.0428,-0.0407,-0.0383,-0.031,-0.0194,-0.0201,-0.0074,-0.006,0.0051,0.0057,0.0071,0.0078,-0.0005,-0.0006,-0.0006,-0.0006,-0.0006,0,-0.0124,-0.0155,-0.018,-0.0197,-0.0289,-0.0287,-0.0391,-0.0424,-0.0471,-0.0529,-0.05,-0.0498,-0.039,-0.0305,-0.0211,-0.006,-0.0081,0.0036,0.0077,0.0045,0.0049,0.0022,0.0024,-0.0003,-0.0004,-0.0004,-0.0005,0,-0.0138,-0.0149,-0.0204,-0.0266,-0.0299,-0.0368,-0.0467,-0.0545,-0.0565,-0.0623,-0.0633,-0.0559,-0.0436,-0.0315,-0.0159,-0.0066,0.006,0.0118,0.008,0.0115,0.017,0.0167,0.023,0.0232,0.0234,0.0236,0.0237,0,-0.013,-0.0152,-0.0259,-0.0336,-0.0365,-0.0466,-0.0551,-0.0596,-0.0657,-0.0648,-0.0668,-0.056,-0.0482,-0.0223,-0.0043,0.0132,0.0134,0.0224,0.0201,0.0158,0.0192,0.0186,0.0181,0.0192,0.0193,0.0194,0.0194,0,-0.0129,-0.0176,-0.0241,-0.0409,-0.0512,-0.0618,-0.0716,-0.0766,-0.08,-0.0798,-0.0739,-0.0666,-0.0413,-0.0197,0.0049,0.0152,0.0189,0.0247,0.0215,0.014,0.013,0.0161,0.0156,0.0201,0.0201,0.02,0.02,0.0199,-0.0151,-0.0217,-0.034,-0.0505,-0.0637,-0.0763,-0.0821,-0.0877,-0.092,-0.0888,-0.0788,-0.0635,-0.0416,-0.0065,0.0116,0.0287,0.027,0.031,0.0304,0.0298,0.0283,0.0278,0.0374,0.0374,0.0374,0.0374,0.0374,0,-0.0183,-0.029,-0.0441,-0.0631,-0.0776,-0.0828,-0.0935,-0.0951,-0.0954,-0.0876,-0.0785,-0.0545,-0.0299,-0.0068,0.0198,0.0353,0.0323,0.0389,0.0312,0.0305,0.0298,0.028,0.0372,0.0372,0.0373,0.0373,0,0,-0.0216,-0.0357,-0.0452,-0.0715,-0.0845,-0.0982,-0.1022,-0.1002,-0.0947,-0.085,-0.0717,-0.0559,-0.0285,-0.0091,0.0106,0.025,0.0238,0.0266,0.025,0.0128,0.012,0.0234,0.0197,0,0,0,0,0]}],[{"header":{"parameterUnit":"m.s-1","parameterCategory":2,"la1":30.2991,"la2":30.254,"lo1":-89.0895,"lo2":-89.0444,"dy":0.0017,"dx":0.0017,"nx":28,"ny":28,"refTime":"2024-08-05T09:00:00:Z","depth":"4","parameterNumber":2,"parameterNumberName":"U-component_of_CURRENTS"},"data":[0,0,0,0,0,0,0,0,0,0,0,0,0,0,0,0,0,0,0,0,0,0,0,0,0,0,0,0,0,0,0,0,0,0,0,0,0,0,0,0,0,0,0,0,0,0,0,0,0,0,0,0,0,0,0,0,0,0,-0.0788,-0.0788,0,-0.0816,-0.0816,-0.0816,-0.083,-0.083,-0.083,-0.083,-0.0869,-0.087,-0.0872,0,0,0,0,0,0,0,0,0,0,0,0,0,-0.0763,-0.0764,-0.0788,-0.0788,-0.0788,-0.0816,-0.0816,-0.0817,-0.083,-0.083,-0.083,-0.083,-0.0869,-0.087,-0.0872,0,0,0,0,0,0,0,0,0,0,0,0,0,-0.0782,-0.0764,-0.0788,-0.0798,-0.0799,-0.0815,-0.0816,-0.0817,-0.083,-0.083,-0.083,-0.083,-0.0869,-0.087,-0.0872,-0.0886,0,0,-0.0877,-0.0878,0,0,0,0,0,0,0,0,-0.0781,-0.0783,-0.0796,-0.0797,-0.0798,-0.0818,-0.0822,-0.084,-0.083,-0.0819,-0.083,-0.083,-0.0853,-0.0856,-0.0863,-0.0888,-0.0889,-0.0877,-0.0878,-0.0879,-0.088,0,0,0,0,0,0,0,-0.0779,-0.0782,-0.08,-0.0796,-0.0798,-0.0806,-0.0809,-0.0825,-0.0838,-0.082,-0.0821,-0.0822,-0.0854,-0.0861,-0.0864,-0.089,-0.0877,-0.0879,-0.088,-0.0881,-0.0961,-0.0962,0,0,0,0,0,0,-0.0773,-0.0781,-0.0799,-0.0801,-0.0788,-0.0807,-0.0809,-0.0813,-0.0837,-0.084,-0.0822,-0.0823,-0.0858,-0.0862,-0.0865,-0.0945,-0.0879,-0.0881,-0.0882,-0.096,-0.0961,-0.0963,0,0,0,0,0,0,-0.0773,-0.0775,-0.0798,-0.079,-0.0794,-0.0807,-0.0811,-0.0813,-0.0838,-0.0839,-0.0842,-0.0846,-0.0858,-0.0863,-0.0893,-0.0944,-0.0882,-0.0883,-0.0959,-0.0961,-0.0962,-0.1065,0,0,0,0,0,0,-0.0772,-0.0774,-0.0785,-0.079,-0.0794,-0.0825,-0.0811,-0.0814,-0.0838,-0.0839,-0.086,-0.0863,-0.0858,-0.0891,-0.0895,-0.0946,-0.0884,-0.0957,-0.096,-0.0962,-0.106,-0.107,-0.1079,0,0,0,0,0,-0.0771,-0.0777,-0.0785,-0.0788,-0.0805,-0.0826,-0.083,-0.0839,-0.0839,-0.086,-0.0868,-0.0863,-0.0907,-0.0893,-0.0898,-0.095,-0.0956,-0.0959,-0.0961,-0.1056,-0.1068,-0.1078,0,0,0,0,0,0,-0.0773,-0.0779,-0.0788,-0.0798,-0.0821,-0.0828,-0.0844,-0.0853,-0.0876,-0.0879,-0.0878,-0.0882,-0.0934,-0.0917,-0.0902,-0.0975,-0.0931,-0.0934,-0.1001,-0.1013,-0.1022,-0.1016,-0.0886,0,0,0,0,0,-0.0778,-0.0787,-0.0801,-0.0815,-0.0826,-0.0842,-0.0854,-0.0864,-0.0879,-0.089,-0.0915,-0.0928,-0.0945,-0.0958,-0.0975,-0.1013,-0.1001,-0.1046,-0.1055,-0.1063,-0.106,-0.1085,-0.1097,-0.0971,-0.0971,-0.0971,0,0,-0.0779,-0.0789,-0.0792,-0.0817,-0.0833,-0.0863,-0.085,-0.0877,-0.0901,-0.089,-0.0948,-0.097,-0.0962,-0.1011,-0.1031,-0.1005,-0.1095,-0.1066,-0.1073,-0.1065,-0.1089,-0.1102,-0.1113,-0.0972,-0.0972,-0.0972,0,0,-0.079,-0.0801,-0.0815,-0.0838,-0.0869,-0.0887,-0.0901,-0.0936,-0.0949,-0.0997,-0.1,-0.1046,-0.1078,-0.1092,-0.1093,-0.1157,-0.1148,-0.1171,-0.1213,-0.124,-0.1251,-0.126,-0.1276,-0.1286,-0.117,-0.117,-0.117,0,-0.0796,-0.0815,-0.0826,-0.0852,-0.0879,-0.0903,-0.0939,-0.0953,-0.1001,-0.1027,-0.1025,-0.1108,-0.1112,-0.116,-0.1183,-0.1182,-0.1189,-0.1178,-0.1254,-0.1262,-0.127,-0.1284,-0.1294,-0.1175,-0.1175,-0.1174,-0.1174,0,-0.0814,-0.0841,-0.0854,-0.09,-0.0937,-0.0968,-0.0997,-0.1039,-0.1071,-0.1103,-0.1175,-0.1191,-0.1241,-0.1256,-0.1237,-0.1306,-0.1292,-0.1271,-0.123,-0.1289,-0.13,-0.1309,-0.1183,-0.1181,-0.118,-0.1178,0,0,-0.0801,-0.0855,-0.0864,-0.0892,-0.0965,-0.099,-0.1045,-0.1104,-0.1148,-0.1202,-0.1252,-0.1308,-0.1346,-0.1348,-0.1355,-0.137,-0.144,-0.1349,-0.1348,-0.1373,-0.1502,-0.138,-0.1376,-0.1442,-0.1444,-0.1445,-0.1494,0,-0.0819,-0.0869,-0.0903,-0.0969,-0.1002,-0.105,-0.1106,-0.1165,-0.122,-0.1277,-0.1295,-0.1365,-0.1368,-0.1412,-0.1432,-0.1446,-0.1464,-0.1429,-0.1433,-0.1433,-0.1323,-0.1382,-0.1451,-0.1499,-0.1501,-0.1503,-0.1503,0,-0.083,-0.0866,-0.093,-0.1005,-0.1027,-0.1083,-0.1187,-0.1232,-0.1309,-0.1357,-0.1431,-0.1457,-0.1519,-0.1484,-0.1555,-0.154,-0.1529,-0.152,-0.1521,-0.1371,-0.1324,-0.1422,-0.1518,-0.1517,-0.1516,-0.1515,-0.1514,0,-0.0812,-0.0883,-0.0936,-0.0961,-0.1058,-0.1105,-0.1166,-0.1275,-0.132,-0.1419,-0.1476,-0.1554,-0.1589,-0.1612,-0.1605,-0.1605,-0.1627,-0.1625,-0.15,-0.1492,-0.1543,-0.1532,-0.1644,-0.1644,-0.1644,-0.1644,-0.1644,0,-0.081,-0.0849,-0.0932,-0.0957,-0.1036,-0.111,-0.1199,-0.128,-0.1375,-0.1418,-0.1524,-0.1557,-0.1623,-0.1633,-0.1625,-0.1584,-0.166,-0.1514,-0.1497,-0.1585,-0.1579,-0.1549,-0.1537,-0.1645,-0.1645,-0.1645,-0.1644,0,-0.0781,-0.0832,-0.0883,-0.0984,-0.1029,-0.1081,-0.1202,-0.1242,-0.1384,-0.143,-0.1467,-0.1581,-0.1626,-0.1648,-0.1664,-0.1604,-0.1578,-0.1525,-0.1614,-0.1601,-0.1428,-0.1421,-0.1443,-0.1439,-0.1435,-0.1433,-0.143,0,-0.0764,-0.0787,-0.0889,-0.0909,-0.0958,-0.1043,-0.109,-0.1234,-0.1258,-0.1413,-0.1395,-0.1503,-0.1545,-0.1509,-0.1537,-0.1531,-0.1489,-0.1474,-0.146,-0.1426,-0.1409,-0.1407,-0.1405,-0.1425,-0.1424,-0.1423,-0.1422,0,-0.0722,-0.0761,-0.0805,-0.0858,-0.0904,-0.0945,-0.1011,-0.1047,-0.1165,-0.128,-0.1332,-0.1378,-0.1397,-0.1433,-0.1421,-0.1402,-0.1499,-0.144,-0.1447,-0.1435,-0.1405,-0.1391,-0.1392,-0.1411,-0.1413,-0.1414,-0.1414,0,-0.0689,-0.0703,-0.0755,-0.0793,-0.0829,-0.0843,-0.0899,-0.093,-0.1007,-0.1169,-0.1156,-0.1277,-0.1359,-0.136,-0.1339,-0.1329,-0.1326,-0.1284,-0.13,-0.1313,-0.1242,-0.1184,-0.1114,0,0,0,0,0,-0.0654,-0.0662,-0.0676,-0.0722,-0.0738,-0.0769,-0.083,-0.0875,-0.0984,-0.0986,-0.1089,-0.1107,-0.116,-0.122,-0.1186,-0.1264,-0.1312,-0.1216,-0.1267,-0.1347,-0.1361,-0.1286,0,0,0,0,0,0,-0.0631,-0.0657,-0.0662,-0.0642,-0.0645,-0.0675,-0.0712,-0.0785,-0.0796,-0.0912,-0.0953,-0.1027,-0.1095,-0.1172,-0.1166,-0.1174,-0.118,-0.1275,-0.1272,-0.134,-0.1352,-0.1363,-0.129,0,0,0,0,0]},{"header":{"parameterUnit":"m.s-1","parameterCategory":2,"la1":30.2991,"la2":30.254,"lo1":-89.0895,"lo2":-89.0444,"dy":0.0017,"dx":0.0017,"nx":28,"ny":28,"refTime":"2024-08-05T09:00:00:Z","depth":"4","parameterNumber":3,"parameterNumberName":"V-component_of_CURRENTS"},"data":[0,0,0,0,0,0,0,0,0,0,0,0,0,0,0,0,0,0,0,0,0,0,0,0,0,0,0,0,0,0,0,0,0,0,0,0,0,0,0,0,0,0,0,0,0,0,0,0,0,0,0,0,0,0,0,0,0,0,-0.0079,-0.0078,0,-0.0047,-0.0046,-0.0046,-0.0023,-0.0023,-0.0023,-0.0022,0.0006,0.0006,0.0007,0,0,0,0,0,0,0,0,0,0,0,0,0,-0.0102,-0.0102,-0.0079,-0.0078,-0.0078,-0.0047,-0.0046,-0.0046,-0.0023,-0.0023,-0.0023,-0.0022,0.0005,0.0006,0.0007,0,0,0,0,0,0,0,0,0,0,0,0,0,-0.0084,-0.0102,-0.0079,-0.0062,-0.006,-0.0047,-0.0046,-0.0046,-0.0023,-0.0023,-0.0023,-0.0022,0.0005,0.0006,0.0007,0.0004,0,0,0.0009,0.0009,0,0,0,0,0,0,0,0,-0.0085,-0.0083,-0.0065,-0.0063,-0.0061,-0.0038,-0.0044,-0.0029,-0.0023,-0.0038,-0.0022,-0.0022,-0.0009,-0.0007,-0.0003,0.0005,0.0006,0.0009,0.001,0.001,0.001,0,0,0,0,0,0,0,-0.0087,-0.0085,-0.0067,-0.0065,-0.0062,-0.005,-0.0047,-0.0041,-0.0027,-0.0037,-0.0035,-0.003,-0.0008,-0.0004,-0.0002,0.0007,0.0009,0.001,0.001,0.001,0.0003,0.0003,0,0,0,0,0,0,-0.009,-0.0086,-0.0068,-0.0066,-0.0072,-0.005,-0.0047,-0.0046,-0.0027,-0.0023,-0.0031,-0.0029,-0.0005,-0.0003,-0.0001,0.0007,0.001,0.0011,0.0011,0.0004,0.0003,0.0002,0,0,0,0,0,0,-0.0091,-0.0089,-0.0069,-0.0074,-0.0071,-0.005,-0.005,-0.0046,-0.0038,-0.0022,-0.0018,-0.0025,-0.0005,-0.0002,0.0002,0.0008,0.0011,0.0012,0.0005,0.0004,0.0003,0.0016,0,0,0,0,0,0,-0.0092,-0.009,-0.0091,-0.0075,-0.007,-0.0064,-0.005,-0.0046,-0.0035,-0.0033,-0.0016,-0.0013,-0.0004,0.0001,0.0003,0.0009,0.0012,0.0006,0.0004,0.0003,0.0017,0.0016,0.0015,0,0,0,0,0,-0.0093,-0.0103,-0.0091,-0.0089,-0.0073,-0.0064,-0.0061,-0.0045,-0.0035,-0.0035,-0.0025,-0.0014,-0.0005,0.0001,0.0004,0.001,0.0006,0.0005,0.0003,0.0017,0.0016,0.0015,0,0,0,0,0,0,-0.0116,-0.01,-0.0088,-0.0092,-0.0077,-0.006,-0.0062,-0.0045,-0.0036,-0.0035,-0.0018,-0.0015,-0.0005,-0.0009,-0.0002,0.0001,0.0,-0.0001,0.001,0.0009,0.0008,0.0002,0.0013,0,0,0,0,0,-0.012,-0.0124,-0.0101,-0.0106,-0.01,-0.0078,-0.0072,-0.0059,-0.0048,-0.0043,-0.0026,-0.0019,-0.0011,-0.001,-0.0001,-0.0003,0.0012,-0.0001,-0.0002,-0.0002,-0.0008,0.0028,0.0031,-0.0002,-0.0002,-0.0002,0,0,-0.013,-0.0123,-0.0125,-0.0111,-0.0101,-0.0096,-0.0075,-0.0069,-0.007,-0.0043,-0.0038,-0.0014,-0.0011,-0.0005,-0.0003,-0.0007,0.0013,-0.0004,-0.0004,-0.001,0.0027,0.0031,0.0034,-0.0003,-0.0003,-0.0003,0,0,-0.0154,-0.0147,-0.0153,-0.0145,-0.0128,-0.0114,-0.0111,-0.0086,-0.0082,-0.0072,-0.005,-0.0024,-0.002,-0.0006,-0.0003,-0.0009,0.0015,-0.0009,-0.0021,0.0016,0.0019,0.0023,0.0046,0.0051,-0.0016,-0.0016,-0.0016,0,-0.0163,-0.0169,-0.0153,-0.0157,-0.0155,-0.0122,-0.0126,-0.012,-0.0095,-0.0088,-0.0076,-0.0036,-0.0022,-0.0012,-0.0009,-0.0007,0.0013,-0.0012,0.0018,0.0021,0.0025,0.0047,0.0053,-0.0016,-0.0016,-0.0016,-0.0016,0,-0.0186,-0.0191,-0.0199,-0.0191,-0.0186,-0.0188,-0.0171,-0.016,-0.014,-0.012,-0.0095,-0.0064,-0.004,-0.0029,-0.002,0.0008,0.0014,0.0024,0.0027,0.0029,0.0052,0.0058,-0.0015,-0.0015,-0.0015,-0.0015,0,0,-0.02,-0.0212,-0.0213,-0.0223,-0.0206,-0.0208,-0.0207,-0.0193,-0.0191,-0.0153,-0.0153,-0.0104,-0.0064,-0.006,-0.0031,-0.0001,0.005,0.0019,0.0021,0.0053,0.0126,0.0081,0.0083,0.0073,0.0074,0.0075,0.0133,0,-0.0218,-0.0242,-0.0238,-0.0261,-0.0269,-0.025,-0.0258,-0.0241,-0.0214,-0.0206,-0.0164,-0.014,-0.0088,-0.0065,-0.0025,0.0034,0.0065,0.0032,0.0107,0.0109,0.0079,0.0088,0.0078,0.0138,0.0139,0.014,0.0141,0,-0.0231,-0.0249,-0.0276,-0.0303,-0.0306,-0.0316,-0.0312,-0.0312,-0.0287,-0.0266,-0.0217,-0.0178,-0.012,-0.0089,0.0029,0.001,0.0065,0.0109,0.0112,0.0067,0.0074,0.0133,0.0152,0.0151,0.015,0.0149,0.0149,0,-0.0245,-0.0274,-0.0303,-0.0311,-0.033,-0.0345,-0.0349,-0.0324,-0.033,-0.0292,-0.0277,-0.0201,-0.0167,-0.0073,0.0028,0.0041,0.0131,0.0161,0.0168,0.0166,0.0186,0.0182,0.0228,0.0228,0.0228,0.0228,0.0227,0,-0.026,-0.0286,-0.0319,-0.0338,-0.0379,-0.0378,-0.0404,-0.0387,-0.0381,-0.0387,-0.0304,-0.0289,-0.0157,-0.0091,0.0005,0.0098,0.0125,0.0165,0.0178,0.0188,0.0183,0.0191,0.0185,0.023,0.0229,0.0229,0.0228,0,-0.0264,-0.0286,-0.0329,-0.037,-0.0388,-0.0414,-0.0451,-0.0464,-0.0434,-0.0443,-0.0429,-0.0347,-0.0243,-0.0134,0.0001,0.0065,0.0158,0.0175,0.0157,0.0169,0.0177,0.0172,0.0214,0.0213,0.0212,0.0212,0.0211,0,-0.0269,-0.029,-0.0353,-0.0389,-0.0413,-0.0457,-0.0487,-0.0489,-0.0498,-0.0474,-0.0484,-0.04,-0.0335,-0.0183,-0.006,0.0099,0.0118,0.0167,0.0197,0.0167,0.0177,0.0173,0.0169,0.0209,0.0209,0.0209,0.0209,0,-0.0279,-0.0303,-0.0337,-0.0406,-0.0457,-0.0513,-0.0555,-0.0572,-0.0572,-0.0554,-0.0521,-0.0436,-0.035,-0.0207,-0.0105,0.0015,0.0145,0.0159,0.0163,0.0191,0.0162,0.0171,0.0169,0.0205,0.0206,0.0206,0.0206,0,-0.0284,-0.0309,-0.0358,-0.0415,-0.0488,-0.0552,-0.0576,-0.06,-0.0612,-0.0584,-0.0582,-0.0472,-0.0408,-0.0254,-0.0154,-0.005,-0.0001,0.0051,0.0061,0.0066,0.0004,-0.0057,-0.0071,0,0,0,0,0,-0.0283,-0.0307,-0.0366,-0.0439,-0.0515,-0.0555,-0.0613,-0.0629,-0.0639,-0.0624,-0.0603,-0.0522,-0.0369,-0.0297,-0.0199,-0.0156,0.0019,-0.0038,0.0085,0.0187,0.0191,0.0138,0,0,0,0,0,0,-0.0287,-0.0329,-0.0355,-0.0446,-0.05,-0.0584,-0.0624,-0.0633,-0.0622,-0.0614,-0.0533,-0.0493,-0.0341,-0.0422,-0.0193,-0.0162,-0.0071,0.0036,0.0038,0.0185,0.0189,0.0192,0.0139,0,0,0,0,0]}]]